Location: Wheeling
(40.0640°N, 80.7210°W)
Time: 14:36:49
(UTC-05:00)

CUTE 1.7 + AOD 2 - Pass Details

Date: 02 November 2021
Orbit: 592 x 610 km, 97.6° (Epoch: 01 December)

Event Time Altitude Azimuth Distance (km) Brightness Sun altitude
Rises 05:41:28 0° 10° (N) 2,878 ? -25.7°
Reaches altitude 10° 05:43:40 10° 9° (N) 1,967 ? -25.3°
Enters shadow 05:45:59 32° 4° (N) 1,060 ? -24.8°
